Content
SEND FEEDBACK

Daily
Averages
Monthly
Summary
United States of America

POTTS JUNCTION, GUAM


Home > North America > United States > Guam
Elevation: 360 feet     Latitude: 13 33N     Longitude: 144 50E

WEATHER
 
SELECT A DAY
Number of Records: 209,308;   Date Range: 1/1/95 - 9/18/14
 
SHARE

PRINT THIS DATA

[ ← Previous Day ]
WEATHER ALMANAC - DECEMBER 8, 2013
[ Next Day → ]
[ °C ]   °F
Weather ElementAverageHighLow
Temperature83.4 °F87.8 °F (10:11 am)79 °F (2:54 am)
Dewpoint74.2 °F75.2 °F (9:22 am)73 °F (12:54 pm)
Humidity74.4 %88 % (2:54 am)62 % (10:11 am)
Barometer29.85 in29.92 in (9:22 am)29.79 in (3:54 pm)
Wind Speed10.8 mph16.1 mph (12:28 pm)
Wind Gust24.2 mph (3:54 pm)
Weather ElementAverage
Visibility10 mi
Wind DirectionENE (73.3 °)

Weather ElementTotal
Precipitation---
Cooling Degree Days18.4 (Base 65)
Growing Degree Days33.4 (Base 50)
Averaged from 30 records on December 8, 2013
WEATHER CONDITIONS BREAKOUT
WIND DIRECTION BREAKOUT
WEATHER BY HOUR - DECEMBER 8, 2013
[ °C ]   °F
Local TimeTemperatureDewpointHumidityBarometerVisibilityWind DirectionWind SpeedGust SpeedPrecipitationEventsConditions
1:54 AM80.1 °F75.0 °F85 %29.84 in10.0 miEast (80°)6.9 mphClear
2:54 AM79.0 °F75.0 °F88 %29.83 in10.0 miENE (60°)8.1 mphClear
3:54 AM79.0 °F75.0 °F88 %29.83 in10.0 miENE (60°)8.1 mphClear
4:54 AM79.0 °F75.0 °F88 %29.83 in10.0 miNE (50°)6.9 mphClear
5:54 AM79.0 °F75.0 °F88 %29.84 in10.0 miENE (60°)8.1 mphScattered Clouds
6:54 AM79.0 °F75.0 °F88 %29.85 in10.0 miENE (70°)8.1 mphClear
7:54 AM82.0 °F75.0 °F79 %29.87 in10.0 miENE (70°)8.1 mphClear
8:54 AM84.0 °F75.0 °F74 %29.89 in10.0 miENE (60°)11.5 mphPartly Cloudy
9:22 AM84.2 °F75.2 °F74 %29.92 in10.0 miEast (90°)13.8 mphMostly Cloudy
9:44 AM86.0 °F73.4 °F66 %29.91 in10.0 miENE (70°)13.8 mphScattered Clouds
9:54 AM86.0 °F73.9 °F67 %29.89 in10.0 miENE (60°)12.7 mphPartly Cloudy
10:11 AM87.8 °F73.4 °F62 %29.91 in10.0 miNE (50°)13.8 mphMostly Cloudy
10:44 AM87.8 °F73.4 °F62 %29.89 in10.0 miEast (80°)12.7 mphMostly Cloudy
10:54 AM87.1 °F73.9 °F65 %29.87 in10.0 miEast (80°)15.0 mph21.9 mphMostly Cloudy
11:54 AM87.1 °F73.9 °F65 %29.85 in10.0 miENE (70°)15.0 mphScattered Clouds
12:28 PM87.8 °F73.4 °F62 %29.85 in10.0 miENE (60°)16.1 mphMostly Cloudy
12:45 PM87.8 °F75.2 °F66 %29.85 in10.0 miEast (80°)13.8 mphMostly Cloudy
12:54 PM87.1 °F73.0 °F63 %29.83 in10.0 miEast (80°)12.7 mphScattered Clouds
1:54 PM87.1 °F73.9 °F65 %29.81 in10.0 miEast (80°)13.8 mphPartly Cloudy
2:54 PM84.9 °F73.9 °F69 %29.80 in10.0 miEast (80°)16.1 mphPartly Cloudy
3:54 PM84.9 °F73.9 °F69 %29.79 in10.0 miEast (90°)16.1 mph24.2 mphPartly Cloudy
4:54 PM84.0 °F73.9 °F72 %29.80 in10.0 miEast (90°)11.5 mphClear
5:54 PM82.0 °F75.0 °F79 %29.81 in10.0 miEast (90°)9.2 mphPartly Cloudy
6:54 PM82.0 °F75.0 °F79 %29.83 in10.0 miEast (80°)6.9 mphMostly Cloudy
7:08 PM82.4 °F75.2 °F79 %29.85 in10.0 miEast (80°)9.2 mphScattered Clouds
7:54 PM82.0 °F75.0 °F79 %29.85 in10.0 miEast (80°)8.1 mphClear
8:54 PM81.0 °F73.9 °F79 %29.86 in10.0 miENE (70°)6.9 mphPartly Cloudy
9:54 PM81.0 °F73.0 °F77 %29.86 in10.0 miENE (70°)6.9 mphPartly Cloudy
10:54 PM81.0 °F73.0 °F77 %29.85 in10.0 miEast (90°)6.9 mphPartly Cloudy
11:54 PM80.1 °F73.0 °F79 %29.84 in10.0 miENE (70°)6.9 mphPartly Cloudy
Hourly data recorded from PGUM, located miles away from Potts Junction, Guam







STORIES FROM OUR PARTNERS